User: anonymous   Login
Location: ??????
(42.0089°N, 44.3281°E)
Time: 11:46:11
(UTC+00:00)
Language:

CZ-4 R/B - Orbit

View from above orbital plane
View from above orbital plane
View from above satellite
View from above satellite

Ground track
Ground track

The orbit data is extracted from the following two-line orbital elements,

1 28414U 04035B   22026.23534171 -.00000124  00000-0 -62009-5 0  9990
2 28414  97.7271  48.9639 0006873 150.4055 209.7555 14.94455168946714
Epoch (UTC): 26 January 2022 05:38:53
Eccentricity: 0.0006873
inclination: 97.7271°
perigee height: 579 km
apogee height: 589 km
right ascension of ascending node: 48.9639°
argument of perigee: 150.4055°
revolutions per day: 14.94455168
mean anomaly at epoch: 209.7555°
orbit number at epoch: 94671

The dashed part of the orbit path shows where the satellite is in the earth's shadow,  

DLR